Terminal Aerodrome Forecast
Issued by NWS Twin Cities, MN

Home | Current Version | Previous Version | Graphics & Text | Print | Product List | Glossary On
Versions: 1 2 3 4 5 6 7 8 9 10 11 12 13 14 15 16 17 18 19 20 21 22 23 24 25 26 27 28 29 30 31
000
FTUS43 KMPX 240800 AAA
TAFMSP
TAF AMD
KMSP 240859Z 2409/2512 31013G23KT P6SM OVC016
     FM241200 31019G30KT P6SM OVC015
      TEMPO 2412/2416 4SM -SHSN OVC010
     FM250400 31014G22KT P6SM SCT015=

USA.gov is the U.S. government's official web portal to all federal, state and local government web resources and services.